Time,TemperatureF,DewpointF,PressureIn,WindDirection,WindDirectionDegrees,WindSpeedMPH,WindSpeedGustMPH,Humidity,HourlyPrecipIn,Conditions,Clouds,dailyrainin,SoftwareType,DateUTC
2013-11-10 00:01:00,42.8,9.4,29.88,SW,232,0.0,0.0,25,0.00,,---,0.00,VWS V12.07,2013-11-10 05:01:00,
2013-11-10 00:07:00,43.0,9.6,29.88,SW,232,0.0,0.0,25,0.00,,---,0.00,VWS V12.07,2013-11-10 05:07:00,
2013-11-10 00:08:00,43.0,9.6,29.88,SW,231,0.0,0.0,25,0.00,,---,0.00,VWS V12.07,2013-11-10 05:08:00,
2013-11-10 00:11:00,43.0,9.6,29.85,SW,232,0.0,0.0,25,0.00,,---,0.00,VWS V12.07,2013-11-10 05:11:00,
2013-11-10 00:14:00,43.0,9.6,29.85,SE,144,0.0,0.0,25,0.00,,---,0.00,VWS V12.07,2013-11-10 05:14:00,
2013-11-10 00:20:00,43.3,9.9,29.85,South,180,0.0,0.0,25,0.00,,---,0.00,VWS V12.07,2013-11-10 05:20:00,
2013-11-10 00:26:00,43.5,10.0,29.85,ESE,112,0.0,0.0,25,0.00,,---,0.00,VWS V12.07,2013-11-10 05:26:00,
2013-11-10 00:32:00,43.5,12.6,29.85,SSE,161,0.0,0.0,28,0.00,,---,0.00,VWS V12.07,2013-11-10 05:32:00,
2013-11-10 00:35:00,43.5,12.6,29.85,WSW,248,0.0,2.7,28,0.00,,---,0.00,VWS V12.07,2013-11-10 05:35:00,
2013-11-10 00:41:00,43.7,12.8,29.85,West,266,0.0,3.1,28,0.00,,---,0.00,VWS V12.07,2013-11-10 05:41:00,
2013-11-10 00:47:00,43.7,12.8,29.85,SW,232,0.0,4.0,28,0.00,,---,0.00,VWS V12.07,2013-11-10 05:47:00,
2013-11-10 00:52:00,43.9,12.9,29.85,SSW,213,0.0,4.0,28,0.00,,---,0.00,VWS V12.07,2013-11-10 05:52:00,
2013-11-10 00:58:00,43.9,12.9,29.85,SW,215,0.0,4.0,28,0.00,,---,0.00,VWS V12.07,2013-11-10 05:58:00,
2013-11-10 01:04:00,44.1,13.1,29.85,SW,216,0.0,0.0,28,0.00,,---,0.00,VWS V12.07,2013-11-10 06:04:00,
2013-11-10 01:10:00,44.1,13.1,29.83,SW,236,0.0,3.6,28,0.00,,---,0.00,VWS V12.07,2013-11-10 06:10:00,
2013-11-10 01:16:00,44.1,13.1,29.83,SE,145,0.0,0.0,28,0.00,,---,0.00,VWS V12.07,2013-11-10 06:16:00,
2013-11-10 01:22:00,44.1,13.1,29.83,WSW,238,0.0,3.6,28,0.00,,---,0.00,VWS V12.07,2013-11-10 06:22:00,
2013-11-10 01:28:00,44.1,13.1,29.83,SW,232,0.0,4.9,28,0.00,,---,0.00,VWS V12.07,2013-11-10 06:28:00,
2013-11-10 01:34:00,44.2,13.2,29.83,WSW,246,0.0,3.1,28,0.00,,---,0.00,VWS V12.07,2013-11-10 06:34:00,
2013-11-10 01:40:00,44.2,13.2,29.83,WSW,254,0.0,3.1,28,0.00,,---,0.00,VWS V12.07,2013-11-10 06:40:00,
2013-11-10 01:46:00,44.2,13.2,29.83,West,259,0.0,0.0,28,0.00,,---,0.00,VWS V12.07,2013-11-10 06:46:00,
2013-11-10 01:52:00,44.1,13.1,29.83,West,270,0.0,3.1,28,0.00,,---,0.00,VWS V12.07,2013-11-10 06:52:00,
2013-11-10 01:58:00,44.1,13.9,29.83,West,270,0.0,3.1,29,0.00,,---,0.00,VWS V12.07,2013-11-10 06:58:00,
2013-11-10 02:04:00,44.1,13.9,29.83,West,271,0.0,0.0,29,0.00,,---,0.00,VWS V12.07,2013-11-10 07:04:00,
2013-11-10 02:10:00,43.9,13.7,29.80,West,267,0.0,0.0,29,0.00,,---,0.00,VWS V12.07,2013-11-10 07:10:00,
2013-11-10 02:16:00,44.1,13.9,29.80,NNW,344,0.0,0.0,29,0.00,,---,0.00,VWS V12.07,2013-11-10 07:16:00,
2013-11-10 02:22:00,44.1,13.9,29.80,NNW,344,0.0,0.0,29,0.00,,---,0.00,VWS V12.07,2013-11-10 07:22:00,
2013-11-10 02:28:00,43.9,13.7,29.80,NNW,344,0.0,0.0,29,0.00,,---,0.00,VWS V12.07,2013-11-10 07:28:00,
2013-11-10 02:36:00,43.9,13.7,29.80,ENE,64,2.2,3.1,29,0.00,,---,0.00,VWS V12.07,2013-11-10 07:36:00,
2013-11-10 02:42:00,43.7,13.5,29.77,ENE,64,0.0,3.1,29,0.00,,---,0.00,VWS V12.07,2013-11-10 07:42:00,
2013-11-10 02:47:00,43.7,13.5,29.77,ENE,64,0.0,0.0,29,0.00,,---,0.00,VWS V12.07,2013-11-10 07:47:00,
2013-11-10 02:53:00,43.7,13.5,29.77,ENE,64,0.0,0.0,29,0.00,,---,0.00,VWS V12.07,2013-11-10 07:53:00,
2013-11-10 02:59:00,43.7,13.5,29.77,ENE,64,0.0,0.0,29,0.00,,---,0.00,VWS V12.07,2013-11-10 07:59:00,
2013-11-10 03:05:00,43.7,13.5,29.77,ENE,64,0.0,0.0,29,0.00,,---,0.00,VWS V12.07,2013-11-10 08:05:00,
2013-11-10 03:13:00,43.7,14.3,29.77,ENE,64,0.0,0.0,30,0.00,,---,0.00,VWS V12.07,2013-11-10 08:13:00,
2013-11-10 03:19:00,43.9,14.5,29.77,ENE,71,0.0,0.0,30,0.00,,---,0.00,VWS V12.07,2013-11-10 08:19:00,
2013-11-10 03:25:00,44.1,14.6,29.77,ENE,71,0.0,0.0,30,0.00,,---,0.00,VWS V12.07,2013-11-10 08:25:00,
2013-11-10 03:31:00,44.1,14.6,29.77,SE,131,0.0,0.0,30,0.00,,---,0.00,VWS V12.07,2013-11-10 08:31:00,
2013-11-10 03:37:00,44.1,14.6,29.77,SE,131,0.0,0.0,30,0.00,,---,0.00,VWS V12.07,2013-11-10 08:37:00,
2013-11-10 03:43:00,44.1,14.6,29.77,SE,138,0.0,0.0,30,0.00,,---,0.00,VWS V12.07,2013-11-10 08:43:00,
2013-11-10 03:49:00,44.2,14.8,29.77,SE,144,0.0,2.2,30,0.00,,---,0.00,VWS V12.07,2013-11-10 08:49:00,
2013-11-10 03:55:00,44.1,14.6,29.77,SE,145,0.0,2.2,30,0.00,,---,0.00,VWS V12.07,2013-11-10 08:55:00,
2013-11-10 04:01:00,44.1,15.4,29.77,ENE,59,3.6,3.6,31,0.00,,---,0.00,VWS V12.07,2013-11-10 09:01:00,
2013-11-10 04:06:00,43.7,16.5,29.77,WSW,254,3.1,5.8,33,0.00,,---,0.00,VWS V12.07,2013-11-10 09:06:00,
2013-11-10 04:12:00,43.7,17.2,29.74,SW,226,2.7,5.8,34,0.00,,---,0.00,VWS V12.07,2013-11-10 09:12:00,
2013-11-10 04:18:00,43.7,18.5,29.74,SW,234,2.7,3.1,36,0.00,,---,0.00,VWS V12.07,2013-11-10 09:18:00,
2013-11-10 04:24:00,43.9,19.9,29.74,SSW,208,0.0,3.1,38,0.00,,---,0.00,VWS V12.07,2013-11-10 09:24:00,
2013-11-10 04:30:00,44.1,20.1,29.74,SW,220,0.0,4.0,38,0.00,,---,0.00,VWS V12.07,2013-11-10 09:30:00,
2013-11-10 04:36:00,44.1,20.1,29.74,West,266,2.7,4.9,38,0.00,,---,0.00,VWS V12.07,2013-11-10 09:36:00,
2013-11-10 04:42:00,44.2,20.3,29.74,West,259,2.7,4.9,38,0.00,,---,0.00,VWS V12.07,2013-11-10 09:42:00,
2013-11-10 04:48:00,44.2,20.9,29.74,West,265,4.0,4.0,39,0.00,,---,0.00,VWS V12.07,2013-11-10 09:48:00,
2013-11-10 04:54:00,44.1,20.7,29.74,West,261,2.2,5.4,39,0.00,,---,0.00,VWS V12.07,2013-11-10 09:54:00,
2013-11-10 05:00:00,43.9,21.1,29.74,WSW,239,2.7,3.1,40,0.00,,---,0.00,VWS V12.07,2013-11-10 10:00:00,
2013-11-10 05:06:00,43.7,21.0,29.74,WSW,251,2.2,4.0,40,0.00,,---,0.00,VWS V12.07,2013-11-10 10:06:00,
2013-11-10 05:12:00,43.5,20.8,29.74,SW,223,0.0,4.0,40,0.00,,---,0.00,VWS V12.07,2013-11-10 10:12:00,
2013-11-10 05:18:00,43.5,21.4,29.74,SSW,203,0.0,0.0,41,0.00,,---,0.00,VWS V12.07,2013-11-10 10:18:00,
2013-11-10 05:24:00,43.3,21.2,29.74,SSW,203,0.0,0.0,41,0.00,,---,0.00,VWS V12.07,2013-11-10 10:24:00,
2013-11-10 05:30:00,43.2,21.6,29.74,SSW,203,0.0,0.0,42,0.00,,---,0.00,VWS V12.07,2013-11-10 10:30:00,
2013-11-10 05:36:00,43.2,21.6,29.74,SSW,203,0.0,0.0,42,0.00,,---,0.00,VWS V12.07,2013-11-10 10:36:00,
2013-11-10 05:42:00,43.0,22.0,29.74,SSW,204,0.0,0.0,43,0.00,,---,0.00,VWS V12.07,2013-11-10 10:42:00,
2013-11-10 05:48:00,43.0,22.0,29.74,WSW,255,0.0,2.2,43,0.00,,---,0.00,VWS V12.07,2013-11-10 10:48:00,
2013-11-10 05:54:00,43.0,22.6,29.74,WSW,254,0.0,2.2,44,0.00,,---,0.00,VWS V12.07,2013-11-10 10:54:00,
2013-11-10 06:00:00,43.0,22.6,29.71,WSW,254,0.0,2.2,44,0.00,,---,0.00,VWS V12.07,2013-11-10 11:00:00,
2013-11-10 06:06:00,43.0,23.1,29.71,WSW,254,0.0,0.0,45,0.00,,---,0.00,VWS V12.07,2013-11-10 11:06:00,
2013-11-10 06:12:00,43.2,23.8,29.71,WSW,254,0.0,0.0,46,0.00,,---,0.00,VWS V12.07,2013-11-10 11:12:00,
2013-11-10 06:20:00,43.2,24.3,29.71,WSW,254,0.0,0.0,47,0.00,,---,0.00,VWS V12.07,2013-11-10 11:20:00,
2013-11-10 06:26:00,43.0,24.1,29.71,WSW,255,0.0,0.0,47,0.00,,---,0.00,VWS V12.07,2013-11-10 11:26:00,
2013-11-10 06:32:00,43.0,24.6,29.71,WSW,255,0.0,0.0,48,0.00,,---,0.00,VWS V12.07,2013-11-10 11:32:00,
2013-11-10 06:38:00,43.0,24.6,29.71,WSW,254,0.0,0.0,48,0.00,,---,0.00,VWS V12.07,2013-11-10 11:38:00,
2013-11-10 06:46:00,43.2,25.3,29.71,WSW,255,0.0,0.0,49,0.00,,---,0.00,VWS V12.07,2013-11-10 11:46:00,
2013-11-10 06:52:00,43.3,25.5,29.71,WSW,254,0.0,0.0,49,0.00,,---,0.00,VWS V12.07,2013-11-10 11:52:00,
2013-11-10 06:58:00,43.3,25.5,29.71,WSW,254,0.0,0.0,49,0.00,,---,0.00,VWS V12.07,2013-11-10 11:58:00,
2013-11-10 07:04:00,43.3,26.0,29.71,WSW,237,0.0,2.7,50,0.00,,---,0.00,VWS V12.07,2013-11-10 12:04:00,
2013-11-10 07:10:00,43.5,26.1,29.71,SSW,207,0.0,2.7,50,0.00,,---,0.00,VWS V12.07,2013-11-10 12:10:00,
2013-11-10 07:16:00,43.7,26.3,29.71,WNW,300,0.0,0.0,50,0.00,,---,0.00,VWS V12.07,2013-11-10 12:16:00,
2013-11-10 07:22:00,43.7,26.8,29.71,WNW,300,0.0,0.0,51,0.00,,---,0.00,VWS V12.07,2013-11-10 12:22:00,
2013-11-10 07:28:00,43.9,26.9,29.71,WNW,300,0.0,0.0,51,0.00,,---,0.00,VWS V12.07,2013-11-10 12:28:00,
2013-11-10 07:34:00,44.1,27.6,29.71,West,266,0.0,0.0,52,0.00,,---,0.00,VWS V12.07,2013-11-10 12:34:00,
2013-11-10 07:40:00,44.1,27.6,29.68,West,267,0.0,0.0,52,0.00,,---,0.00,VWS V12.07,2013-11-10 12:40:00,
2013-11-10 07:46:00,44.2,28.2,29.68,West,266,0.0,0.0,53,0.00,,---,0.00,VWS V12.07,2013-11-10 12:46:00,
2013-11-10 07:51:00,44.4,28.4,29.68,SW,225,2.2,4.5,53,0.00,,---,0.00,VWS V12.07,2013-11-10 12:51:00,
2013-11-10 07:57:00,44.6,29.0,29.68,SW,230,3.1,4.5,54,0.00,,---,0.00,VWS V12.07,2013-11-10 12:57:00,
2013-11-10 08:03:00,45.0,29.8,29.68,WSW,238,2.7,4.0,55,0.00,,---,0.00,VWS V12.07,2013-11-10 13:03:00,
2013-11-10 08:09:00,45.3,30.6,29.68,SW,225,0.0,4.0,56,0.00,,---,0.00,VWS V12.07,2013-11-10 13:09:00,
2013-11-10 08:15:00,45.3,30.6,29.68,WSW,248,3.6,4.0,56,0.00,,---,0.00,VWS V12.07,2013-11-10 13:15:00,
2013-11-10 08:21:00,45.7,31.8,29.68,SW,224,3.6,4.9,58,0.00,,---,0.00,VWS V12.07,2013-11-10 13:21:00,
2013-11-10 08:27:00,45.9,32.4,29.68,SW,231,4.0,7.6,59,0.00,,---,0.00,VWS V12.07,2013-11-10 13:27:00,
2013-11-10 08:33:00,46.2,33.1,29.68,SW,231,2.7,5.4,60,0.00,,---,0.00,VWS V12.07,2013-11-10 13:33:00,
2013-11-10 08:39:00,46.4,32.9,29.68,WSW,239,3.1,6.3,59,0.00,,---,0.00,VWS V12.07,2013-11-10 13:39:00,
2013-11-10 08:45:00,46.6,33.0,29.68,SW,225,4.0,4.0,59,0.00,,---,0.00,VWS V12.07,2013-11-10 13:45:00,
2013-11-10 08:51:00,46.8,32.8,29.68,WSW,242,3.6,7.6,58,0.00,,---,0.00,VWS V12.07,2013-11-10 13:51:00,
2013-11-10 08:57:00,46.9,32.5,29.68,SSW,204,2.7,7.6,57,0.00,,---,0.00,VWS V12.07,2013-11-10 13:57:00,
2013-11-10 09:03:00,47.1,32.2,29.68,WSW,251,3.1,3.6,56,0.00,,---,0.00,VWS V12.07,2013-11-10 14:03:00,
2013-11-10 09:09:00,47.5,32.6,29.68,WSW,247,2.7,4.9,56,0.00,,---,0.00,VWS V12.07,2013-11-10 14:09:00,
2013-11-10 09:15:00,47.8,32.5,29.68,SW,235,3.6,3.6,55,0.00,,---,0.00,VWS V12.07,2013-11-10 14:15:00,
2013-11-10 09:21:00,48.0,32.2,29.68,SW,223,4.0,5.4,54,0.00,,---,0.00,VWS V12.07,2013-11-10 14:21:00,
2013-11-10 09:27:00,48.6,32.2,29.68,NW,312,4.9,6.3,53,0.00,,---,0.00,VWS V12.07,2013-11-10 14:27:00,
2013-11-10 09:33:00,50.2,34.2,29.68,SW,229,2.7,6.3,54,0.00,,---,0.00,VWS V12.07,2013-11-10 14:33:00,
2013-11-10 09:39:00,51.4,34.9,29.68,SSW,192,3.1,8.1,53,0.00,,---,0.00,VWS V12.07,2013-11-10 14:39:00,
2013-11-10 09:45:00,52.0,31.9,29.65,West,259,8.3,8.3,46,0.00,,---,0.00,VWS V12.07,2013-11-10 14:45:00,
2013-11-10 09:51:00,51.8,27.0,29.65,SW,226,6.3,8.3,38,0.00,,---,0.00,VWS V12.07,2013-11-10 14:51:00,
2013-11-10 09:57:00,51.6,26.2,29.65,West,271,2.7,10.1,37,0.00,,---,0.00,VWS V12.07,2013-11-10 14:57:00,
2013-11-10 10:03:00,51.6,26.2,29.65,WSW,256,2.7,5.4,37,0.00,,---,0.00,VWS V12.07,2013-11-10 15:03:00,
2013-11-10 10:09:00,52.2,26.7,29.65,WNW,286,3.6,5.8,37,0.00,,---,0.00,VWS V12.07,2013-11-10 15:09:00,
2013-11-10 10:15:00,53.4,27.1,29.65,WSW,237,5.4,5.4,36,0.00,,---,0.00,VWS V12.07,2013-11-10 15:15:00,
2013-11-10 10:21:00,53.4,25.1,29.65,WSW,256,3.1,8.1,33,0.00,,---,0.00,VWS V12.07,2013-11-10 15:21:00,
2013-11-10 10:27:00,53.6,25.2,29.65,SW,236,6.3,8.1,33,0.00,,---,0.00,VWS V12.07,2013-11-10 15:27:00,
2013-11-10 10:32:00,53.6,23.7,29.65,West,272,5.4,6.7,31,0.00,,---,0.00,VWS V12.07,2013-11-10 15:32:00,
2013-11-10 10:39:00,53.6,23.7,29.65,WSW,248,4.0,6.7,31,0.00,,---,0.00,VWS V12.07,2013-11-10 15:39:00,
2013-11-10 10:45:00,53.8,23.9,29.65,WSW,242,5.8,5.8,31,0.00,,---,0.00,VWS V12.07,2013-11-10 15:45:00,
2013-11-10 10:51:00,54.1,24.2,29.65,West,274,3.1,7.6,31,0.00,,---,0.00,VWS V12.07,2013-11-10 15:51:00,
2013-11-10 10:57:00,54.7,24.7,29.62,SW,220,4.0,7.6,31,0.00,,---,0.00,VWS V12.07,2013-11-10 15:57:00,
2013-11-10 11:03:00,54.9,23.2,29.62,WSW,250,2.7,6.3,29,0.00,,---,0.00,VWS V12.07,2013-11-10 16:03:00,
2013-11-10 11:09:00,55.2,22.7,29.62,WSW,243,3.6,6.3,28,0.00,,---,0.00,VWS V12.07,2013-11-10 16:09:00,
2013-11-10 11:14:00,55.2,21.8,29.62,WNW,293,0.0,9.6,27,0.00,,---,0.00,VWS V12.07,2013-11-10 16:14:00,
2013-11-10 11:20:00,55.2,21.8,29.62,NW,321,4.0,6.3,27,0.00,,---,0.00,VWS V12.07,2013-11-10 16:20:00,
2013-11-10 11:26:00,55.2,21.0,29.62,NNE,21,3.6,8.7,26,0.00,,---,0.00,VWS V12.07,2013-11-10 16:26:00,
2013-11-10 11:32:00,54.9,20.6,29.62,SSW,200,3.1,8.3,26,0.00,,---,0.00,VWS V12.07,2013-11-10 16:32:00,
2013-11-10 11:38:00,54.5,20.3,29.62,SSW,211,5.4,8.3,26,0.00,,---,0.00,VWS V12.07,2013-11-10 16:38:00,
2013-11-10 11:44:00,54.7,20.5,29.59,SSW,209,5.4,8.3,26,0.00,,---,0.00,VWS V12.07,2013-11-10 16:44:00,
2013-11-10 11:50:00,54.7,20.5,29.59,SSW,209,4.9,8.7,26,0.00,,---,0.00,VWS V12.07,2013-11-10 16:50:00,
2013-11-10 11:56:00,55.0,20.8,29.59,SW,230,2.7,8.7,26,0.00,,---,0.00,VWS V12.07,2013-11-10 16:56:00,
2013-11-10 12:02:00,55.6,21.3,29.59,WSW,237,2.7,5.4,26,0.00,,---,0.00,VWS V12.07,2013-11-10 17:02:00,
2013-11-10 12:07:00,56.1,20.8,29.59,WSW,251,6.3,10.5,25,0.00,,---,0.00,VWS V12.07,2013-11-10 17:07:00,
2013-11-10 12:14:00,56.3,21.0,29.59,SW,217,4.0,10.5,25,0.00,,---,0.00,VWS V12.07,2013-11-10 17:14:00,
2013-11-10 12:20:00,56.7,21.3,29.59,SSW,206,8.1,8.1,25,0.00,,---,0.00,VWS V12.07,2013-11-10 17:20:00,
2013-11-10 12:26:00,56.7,21.3,29.56,WNW,286,5.8,10.1,25,0.00,,---,0.00,VWS V12.07,2013-11-10 17:26:00,
2013-11-10 12:32:00,56.7,21.3,29.56,WSW,246,5.4,5.4,25,0.00,,---,0.00,VWS V12.07,2013-11-10 17:32:00,
2013-11-10 12:38:00,56.7,21.3,29.56,West,266,2.7,6.3,25,0.00,,---,0.00,VWS V12.07,2013-11-10 17:38:00,
2013-11-10 12:44:00,56.7,21.3,29.56,WSW,238,4.9,8.3,25,0.00,,---,0.00,VWS V12.07,2013-11-10 17:44:00,
2013-11-10 12:50:00,56.5,21.1,29.56,SSW,201,6.3,7.6,25,0.00,,---,0.00,VWS V12.07,2013-11-10 17:50:00,
2013-11-10 12:56:00,56.1,20.8,29.56,SW,222,8.1,10.1,25,0.00,,---,0.00,VWS V12.07,2013-11-10 17:56:00,
2013-11-10 13:02:00,55.9,20.6,29.56,SW,227,4.0,4.9,25,0.00,,---,0.00,VWS V12.07,2013-11-10 18:02:00,
2013-11-10 13:08:00,55.9,20.6,29.56,SW,231,4.0,6.3,25,0.00,,---,0.00,VWS V12.07,2013-11-10 18:08:00,
2013-11-10 13:14:00,55.8,20.5,29.59,SW,233,6.3,10.1,25,0.00,,---,0.00,VWS V12.07,2013-11-10 18:14:00,
2013-11-10 13:20:00,55.4,20.2,29.59,SSW,203,3.1,8.1,25,0.00,,---,0.00,VWS V12.07,2013-11-10 18:20:00,
2013-11-10 13:26:00,55.4,20.2,29.56,WSW,243,3.1,8.1,25,0.00,,---,0.00,VWS V12.07,2013-11-10 18:26:00,
2013-11-10 13:32:00,55.9,20.6,29.56,WNW,297,5.8,6.3,25,0.00,,---,0.00,VWS V12.07,2013-11-10 18:32:00,
2013-11-10 13:38:00,56.3,21.0,29.56,SW,219,4.0,6.3,25,0.00,,---,0.00,VWS V12.07,2013-11-10 18:38:00,
2013-11-10 13:44:00,56.5,18.1,29.56,West,281,3.6,8.3,22,0.00,,---,0.00,VWS V12.07,2013-11-10 18:44:00,
2013-11-10 13:50:00,56.1,17.8,29.56,SW,227,4.9,9.6,22,0.00,,---,0.00,VWS V12.07,2013-11-10 18:50:00,
2013-11-10 13:56:00,55.8,17.5,29.56,SSW,209,2.2,10.1,22,0.00,,---,0.00,VWS V12.07,2013-11-10 18:56:00,
2013-11-10 14:02:00,55.2,18.1,29.56,West,259,6.7,7.6,23,0.00,,---,0.00,VWS V12.07,2013-11-10 19:02:00,
2013-11-10 14:08:00,54.9,17.8,29.56,WSW,252,3.1,8.3,23,0.00,,---,0.00,VWS V12.07,2013-11-10 19:08:00,
2013-11-10 14:14:00,54.7,17.6,29.56,SSW,212,5.4,8.3,23,0.00,,---,0.00,VWS V12.07,2013-11-10 19:14:00,
2013-11-10 14:20:00,54.3,17.3,29.56,SSW,212,5.4,8.3,23,0.00,,---,0.00,VWS V12.07,2013-11-10 19:20:00,
2013-11-10 14:25:00,54.1,17.2,29.59,West,261,10.5,15.0,23,0.00,,---,0.00,VWS V12.07,2013-11-10 19:25:00,
2013-11-10 14:31:00,53.8,18.8,29.59,South,169,3.6,8.1,25,0.00,,---,0.00,VWS V12.07,2013-11-10 19:31:00,
2013-11-10 14:36:00,53.1,19.1,29.59,West,260,2.7,10.1,26,0.00,,---,0.00,VWS V12.07,2013-11-10 19:36:00,
2013-11-10 14:42:00,52.5,18.6,29.59,NW,305,3.1,10.1,26,0.00,,---,0.00,VWS V12.07,2013-11-10 19:42:00,
2013-11-10 14:48:00,52.0,18.2,29.59,SSW,202,3.6,6.3,26,0.00,,---,0.00,VWS V12.07,2013-11-10 19:48:00,
2013-11-10 14:54:00,51.6,17.9,29.59,SW,226,2.2,6.3,26,0.00,,---,0.00,VWS V12.07,2013-11-10 19:54:00,
2013-11-10 15:00:00,51.4,18.6,29.59,WSW,244,4.0,5.4,27,0.00,,---,0.00,VWS V12.07,2013-11-10 20:00:00,
2013-11-10 15:06:00,51.3,18.4,29.59,SW,216,5.8,6.3,27,0.00,,---,0.00,VWS V12.07,2013-11-10 20:06:00,
2013-11-10 15:12:00,51.3,17.6,29.59,WSW,257,4.0,6.3,26,0.00,,---,0.00,VWS V12.07,2013-11-10 20:12:00,
2013-11-10 15:18:00,51.4,17.7,29.59,NNW,330,3.6,6.3,26,0.00,,---,0.00,VWS V12.07,2013-11-10 20:18:00,
2013-11-10 15:24:00,51.4,17.7,29.59,WSW,244,3.1,6.3,26,0.00,,---,0.00,VWS V12.07,2013-11-10 20:24:00,
2013-11-10 15:31:00,51.4,17.7,29.59,SW,233,5.4,8.3,26,0.00,,---,0.00,VWS V12.07,2013-11-10 20:31:00,
2013-11-10 15:37:00,51.4,17.7,29.59,West,263,4.9,8.3,26,0.00,,---,0.00,VWS V12.07,2013-11-10 20:37:00,
2013-11-10 15:43:00,51.4,17.7,29.56,WSW,242,3.1,8.3,26,0.00,,---,0.00,VWS V12.07,2013-11-10 20:43:00,
2013-11-10 15:51:00,51.3,17.6,29.56,WSW,240,2.7,6.7,26,0.00,,---,0.00,VWS V12.07,2013-11-10 20:51:00,
2013-11-10 15:57:00,51.3,17.6,29.59,WSW,242,3.6,7.6,26,0.00,,---,0.00,VWS V12.07,2013-11-10 20:57:00,
2013-11-10 16:03:00,51.1,17.4,29.59,West,264,3.6,7.6,26,0.00,,---,0.00,VWS V12.07,2013-11-10 21:03:00,
2013-11-10 16:09:00,51.1,17.4,29.59,SW,221,4.9,7.6,26,0.00,,---,0.00,VWS V12.07,2013-11-10 21:09:00,
2013-11-10 16:15:00,50.9,17.2,29.59,WNW,287,6.3,6.3,26,0.00,,---,0.00,VWS V12.07,2013-11-10 21:15:00,
2013-11-10 16:21:00,50.7,17.1,29.59,WSW,242,0.0,8.3,26,0.00,,---,0.00,VWS V12.07,2013-11-10 21:21:00,
2013-11-10 16:27:00,50.7,17.1,29.59,SSW,212,4.0,11.0,26,0.00,,---,0.00,VWS V12.07,2013-11-10 21:27:00,
2013-11-10 16:33:00,50.5,17.0,29.59,West,274,3.6,6.3,26,0.00,,---,0.00,VWS V12.07,2013-11-10 21:33:00,
2013-11-10 16:39:00,50.4,16.8,29.59,SW,222,3.1,6.3,26,0.00,,---,0.00,VWS V12.07,2013-11-10 21:39:00,
2013-11-10 16:45:00,50.4,16.8,29.62,WNW,290,5.4,7.6,26,0.00,,---,0.00,VWS V12.07,2013-11-10 21:45:00,
2013-11-10 16:51:00,50.2,16.6,29.62,SW,224,5.4,7.6,26,0.00,,---,0.00,VWS V12.07,2013-11-10 21:51:00,
2013-11-10 16:57:00,50.2,16.6,29.62,SW,226,6.7,9.2,26,0.00,,---,0.00,VWS V12.07,2013-11-10 21:57:00,
2013-11-10 17:04:00,50.0,16.5,29.62,WSW,241,6.3,6.3,26,0.00,,---,0.00,VWS V12.07,2013-11-10 22:04:00,
2013-11-10 17:10:00,49.8,16.3,29.62,West,263,4.9,8.1,26,0.00,,---,0.00,VWS V12.07,2013-11-10 22:10:00,
2013-11-10 17:16:00,49.6,16.2,29.62,WSW,238,3.1,5.4,26,0.00,,---,0.00,VWS V12.07,2013-11-10 22:16:00,
2013-11-10 17:22:00,49.5,16.0,29.62,WSW,246,3.1,8.1,26,0.00,,---,0.00,VWS V12.07,2013-11-10 22:22:00,
2013-11-10 17:28:00,49.1,15.7,29.62,SW,217,2.7,8.1,26,0.00,,---,0.00,VWS V12.07,2013-11-10 22:28:00,
2013-11-10 17:35:00,48.7,16.3,29.62,WSW,243,2.7,6.3,27,0.00,,---,0.00,VWS V12.07,2013-11-10 22:35:00,
2013-11-10 17:41:00,48.6,16.1,29.62,West,270,5.4,6.7,27,0.00,,---,0.00,VWS V12.07,2013-11-10 22:41:00,
2013-11-10 17:47:00,48.4,16.0,29.62,SW,235,5.4,8.1,27,0.00,,---,0.00,VWS V12.07,2013-11-10 22:47:00,
2013-11-10 17:53:00,48.2,15.8,29.62,SSW,206,3.6,8.1,27,0.00,,---,0.00,VWS V12.07,2013-11-10 22:53:00,
2013-11-10 17:59:00,48.0,15.6,29.62,West,260,5.8,8.1,27,0.00,,---,0.00,VWS V12.07,2013-11-10 22:59:00,
2013-11-10 18:05:00,47.8,15.5,29.62,SW,232,4.9,6.3,27,0.00,,---,0.00,VWS V12.07,2013-11-10 23:05:00,
2013-11-10 18:11:00,47.5,15.2,29.62,SW,222,4.0,8.1,27,0.00,,---,0.00,VWS V12.07,2013-11-10 23:11:00,
2013-11-10 18:17:00,47.5,15.2,29.62,WSW,245,4.0,4.9,27,0.00,,---,0.00,VWS V12.07,2013-11-10 23:17:00,
2013-11-10 18:23:00,47.3,15.0,29.62,WSW,237,4.9,6.7,27,0.00,,---,0.00,VWS V12.07,2013-11-10 23:23:00,
2013-11-10 18:29:00,47.1,14.9,29.62,West,262,2.7,6.7,27,0.00,,---,0.00,VWS V12.07,2013-11-10 23:29:00,
2013-11-10 18:35:00,46.8,14.6,29.62,West,277,2.7,3.6,27,0.00,,---,0.00,VWS V12.07,2013-11-10 23:35:00,
2013-11-10 18:41:00,46.6,15.2,29.65,WSW,243,2.2,5.8,28,0.00,,---,0.00,VWS V12.07,2013-11-10 23:41:00,
2013-11-10 18:47:00,46.4,15.1,29.65,WSW,245,3.6,4.0,28,0.00,,---,0.00,VWS V12.07,2013-11-10 23:47:00,
2013-11-10 18:53:00,46.2,14.9,29.65,SW,227,0.0,6.3,28,0.00,,---,0.00,VWS V12.07,2013-11-10 23:53:00,
2013-11-10 18:59:00,46.0,14.8,29.65,WSW,256,2.7,7.2,28,0.00,,---,0.00,VWS V12.07,2013-11-10 23:59:00,
2013-11-10 19:05:00,45.9,14.6,29.65,WSW,248,4.0,7.2,28,0.00,,---,0.00,VWS V12.07,2013-11-11 00:05:00,
2013-11-10 19:10:00,45.7,15.3,29.65,WSW,252,3.6,7.2,29,0.00,,---,0.00,VWS V12.07,2013-11-11 00:10:00,
2013-11-10 19:16:00,45.5,15.1,29.65,SW,233,2.2,3.6,29,0.00,,---,0.00,VWS V12.07,2013-11-11 00:16:00,
2013-11-10 19:22:00,45.3,14.9,29.65,WNW,296,0.0,4.0,29,0.00,,---,0.00,VWS V12.07,2013-11-11 00:22:00,
2013-11-10 19:28:00,45.1,14.8,29.65,SW,226,0.0,4.0,29,0.00,,---,0.00,VWS V12.07,2013-11-11 00:28:00,
2013-11-10 19:34:00,45.1,14.8,29.65,WSW,239,0.0,3.6,29,0.00,,---,0.00,VWS V12.07,2013-11-11 00:34:00,
2013-11-10 19:40:00,45.0,14.6,29.65,West,265,0.0,5.4,29,0.00,,---,0.00,VWS V12.07,2013-11-11 00:40:00,
2013-11-10 19:46:00,44.8,14.5,29.65,WSW,249,0.0,2.2,29,0.00,,---,0.00,VWS V12.07,2013-11-11 00:46:00,
2013-11-10 19:52:00,44.4,14.2,29.65,West,264,3.1,4.0,29,0.00,,---,0.00,VWS V12.07,2013-11-11 00:52:00,
2013-11-10 19:58:00,44.2,14.0,29.65,West,265,0.0,4.0,29,0.00,,---,0.00,VWS V12.07,2013-11-11 00:58:00,
2013-11-10 20:04:00,44.1,14.6,29.65,WNW,299,0.0,0.0,30,0.00,,---,0.00,VWS V12.07,2013-11-11 01:04:00,
2013-11-10 20:10:00,43.9,14.5,29.65,SW,231,0.0,2.7,30,0.00,,---,0.00,VWS V12.07,2013-11-11 01:10:00,
2013-11-10 20:16:00,43.7,14.3,29.65,NNW,329,0.0,0.0,30,0.00,,---,0.00,VWS V12.07,2013-11-11 01:16:00,
2013-11-10 20:21:00,43.5,14.2,29.65,West,277,0.0,3.1,30,0.00,,---,0.00,VWS V12.07,2013-11-11 01:21:00,
2013-11-10 20:27:00,43.3,14.0,29.65,WSW,242,0.0,4.0,30,0.00,,---,0.00,VWS V12.07,2013-11-11 01:27:00,
2013-11-10 20:33:00,43.2,13.8,29.65,WSW,240,0.0,3.6,30,0.00,,---,0.00,VWS V12.07,2013-11-11 01:33:00,
2013-11-10 20:39:00,43.0,14.4,29.65,West,263,0.0,4.5,31,0.00,,---,0.00,VWS V12.07,2013-11-11 01:39:00,
2013-11-10 20:45:00,43.0,14.4,29.65,WSW,248,0.0,0.0,31,0.00,,---,0.00,VWS V12.07,2013-11-11 01:45:00,
2013-11-10 20:51:00,42.8,14.3,29.65,NW,318,0.0,2.7,31,0.00,,---,0.00,VWS V12.07,2013-11-11 01:51:00,
2013-11-10 20:57:00,42.4,14.7,29.65,NW,318,0.0,2.7,32,0.00,,---,0.00,VWS V12.07,2013-11-11 01:57:00,
2013-11-10 21:03:00,42.3,14.5,29.65,SW,224,0.0,2.2,32,0.00,,---,0.00,VWS V12.07,2013-11-11 02:03:00,
2013-11-10 21:09:00,42.3,14.5,29.65,West,277,0.0,6.3,32,0.00,,---,0.00,VWS V12.07,2013-11-11 02:09:00,
2013-11-10 21:15:00,42.4,14.7,29.65,West,260,0.0,0.0,32,0.00,,---,0.00,VWS V12.07,2013-11-11 02:15:00,
2013-11-10 21:21:00,42.4,15.4,29.65,West,259,2.7,5.8,33,0.00,,---,0.00,VWS V12.07,2013-11-11 02:21:00,
2013-11-10 21:27:00,42.6,15.6,29.65,SW,233,2.2,5.8,33,0.00,,---,0.00,VWS V12.07,2013-11-11 02:27:00,
2013-11-10 21:33:00,42.8,15.7,29.65,WSW,247,4.0,4.0,33,0.00,,---,0.00,VWS V12.07,2013-11-11 02:33:00,
2013-11-10 21:39:00,42.8,15.7,29.65,SW,234,3.6,4.0,33,0.00,,---,0.00,VWS V12.07,2013-11-11 02:39:00,
2013-11-10 21:45:00,42.6,15.6,29.65,WSW,248,3.1,3.6,33,0.00,,---,0.00,VWS V12.07,2013-11-11 02:45:00,
2013-11-10 21:51:00,42.6,15.6,29.65,SW,230,3.6,4.9,33,0.00,,---,0.00,VWS V12.07,2013-11-11 02:51:00,
2013-11-10 21:57:00,42.6,15.6,29.65,WSW,239,2.7,5.8,33,0.00,,---,0.00,VWS V12.07,2013-11-11 02:57:00,
2013-11-10 22:03:00,42.6,15.6,29.65,West,260,3.6,5.8,33,0.00,,---,0.00,VWS V12.07,2013-11-11 03:03:00,
2013-11-10 22:09:00,42.6,15.6,29.65,WSW,255,4.0,5.8,33,0.00,,---,0.00,VWS V12.07,2013-11-11 03:09:00,
2013-11-10 22:15:00,42.6,15.6,29.65,SW,227,2.7,2.7,33,0.00,,---,0.00,VWS V12.07,2013-11-11 03:15:00,
2013-11-10 22:21:00,42.6,15.6,29.65,WSW,238,3.6,8.3,33,0.00,,---,0.00,VWS V12.07,2013-11-11 03:21:00,
2013-11-10 22:27:00,42.6,15.6,29.65,WSW,243,4.0,8.3,33,0.00,,---,0.00,VWS V12.07,2013-11-11 03:27:00,
2013-11-10 22:33:00,42.8,15.0,29.65,WSW,247,3.6,4.9,32,0.00,,---,0.00,VWS V12.07,2013-11-11 03:33:00,
2013-11-10 22:39:00,42.8,15.0,29.65,NW,307,4.0,5.8,32,0.00,,---,0.00,VWS V12.07,2013-11-11 03:39:00,
2013-11-10 22:45:00,43.0,15.2,29.68,West,265,3.6,3.6,32,0.00,,---,0.00,VWS V12.07,2013-11-11 03:45:00,
2013-11-10 22:51:00,43.3,14.8,29.68,SSW,206,3.1,8.3,31,0.00,,---,0.00,VWS V12.07,2013-11-11 03:51:00,
2013-11-10 22:59:00,43.5,14.9,29.68,SW,221,3.1,8.3,31,0.00,,---,0.00,VWS V12.07,2013-11-11 03:59:00,
2013-11-10 23:05:00,43.7,14.3,29.68,WSW,243,3.6,4.0,30,0.00,,---,0.00,VWS V12.07,2013-11-11 04:05:00,
2013-11-10 23:11:00,43.7,14.3,29.68,WSW,258,4.9,8.7,30,0.00,,---,0.00,VWS V12.07,2013-11-11 04:11:00,
2013-11-10 23:17:00,44.1,13.9,29.68,West,277,6.7,7.6,29,0.00,,---,0.00,VWS V12.07,2013-11-11 04:17:00,
2013-11-10 23:23:00,44.2,14.0,29.68,West,273,6.3,8.7,29,0.00,,---,0.00,VWS V12.07,2013-11-11 04:23:00,
2013-11-10 23:29:00,44.4,14.2,29.68,SW,229,5.4,9.6,29,0.00,,---,0.00,VWS V12.07,2013-11-11 04:29:00,
2013-11-10 23:35:00,44.6,13.5,29.68,SW,233,6.7,8.3,28,0.00,,---,0.00,VWS V12.07,2013-11-11 04:35:00,
2013-11-10 23:41:00,45.0,13.8,29.68,NW,314,8.3,12.3,28,0.00,,---,0.00,VWS V12.07,2013-11-11 04:41:00,
2013-11-10 23:47:00,45.0,13.8,29.68,West,272,6.3,6.3,28,0.00,,---,0.00,VWS V12.07,2013-11-11 04:47:00,
2013-11-10 23:53:00,44.8,13.7,29.68,WSW,252,4.9,6.3,28,0.00,,---,0.00,VWS V12.07,2013-11-11 04:53:00,
2013-11-10 23:59:00,44.6,13.5,29.68,SW,234,4.0,6.3,28,0.00,,---,0.00,VWS V12.07,2013-11-11 04:59:00,